Regional Weather Roundup
Issued by NWS Jackson, KY

Home | Current Version | Previous Version | Text Only | Print | Product List | Glossary Off
Versions: 1 2 3 4 5 6 7 8 9 10 11 12 13 14 15 16 17 18 19 20 21 22 23 24 25 26 27 28 29 30 31 32 33 34 35 36 37 38 39 40 41 42 43 44 45 46 47 48 49 50

000
ASUS43 KJKL 090110
RWRJKL

EAST KENTUCKY HOURLY WEATHER ROUNDUP
NATIONAL WEATHER SERVICE JACKSON KY
800 PM EST THU DEC 08 2016

NOTE: "FAIR" INDICATES FEW OR NO CLOUDS BELOW 12,000 FEET WITH
NO SIGNIFICANT WEATHER AND/OR OBSTRUCTIONS TO VISIBILITY.

* THESE REPORTS ARE NOT UNDER NWS QUALITY CONTROL AND MAY NOT
  REPORT WEATHER SUCH AS PRECIPITATION AND FOG.

KYZ079-080-083-085-087-088-110-112-115-119-120-090200
...EASTERN KENTUCKY...

CITY           SKY/WX    TMP DP  RH WIND       PRES   REMARKS
JACKSON        CLEAR     27  15  61 W7        30.33R WCI  19
LONDON         CLEAR     28  14  55 W8        30.37R WCI  20
SOMERSET*      PTCLDY    28  14  54 CALM      30.42R
MONTICELLO*    PTCLDY    26  18  71 W7        30.43R WCI  18
MIDDLESBORO*   CLEAR     31  16  53 NW8       30.37R WCI  24
HARLAN APT*    CLEAR     30  16  55 SW6       30.33S WCI  24
PIKE CO APT*     N/A     28  16  59 W12       30.32R WCI  18
BIG SANDY APT* CLEAR     29  16  58 NW6       30.33R WCI  23
MOREHEAD APT*  CLOUDY    28  14  54 NW10      30.37R WCI  19
ASHLAND*       CLEAR     28  18  64 NW8       30.35R WCI  20
$$

KYZ035-036-041-042-044-050-067-078-099-090200
...CENTRAL KENTUCKY...

CITY           SKY/WX    TMP DP  RH WIND       PRES   REMARKS
MT STERLING*   PTCLDY    28  18  64 NW7       30.38S WCI  21
FLEMING/MASON* PTCLDY    25  16  69 NW7       30.39R WCI  17
DANVILLE*      CLEAR     28  16  59 W9        30.40R WCI  20
LEXINGTON      PTCLDY    26  14  60 NW10      30.39R WCI  16
FRANKFORT      PTCLDY    26  13  57 NW10G21   30.41R WCI  16
LOUISVILLE     MOCLDY    27  11  51 NW18      30.46R WCI  14
LEBANON*         N/A     27  16  63 W5        30.42R WCI  21
GLASGOW*       CLEAR     27  18  68 CALM      30.45R
BOWLING GREEN  CLEAR     30  16  56 VRB6      30.48R WCI  24
$$

KYZ091>093-OHZ055-061-077-WVZ005-015-034-035-042-090200
...SOUTHERN OHIO/WEST VIRGINIA...

CITY           SKY/WX    TMP DP  RH WIND       PRES   REMARKS
COVINGTON      FLURRIES  24  14  65 NW14      30.39S WCI  12
COLUMBUS       FLURRIES  23  17  78 NW18      30.33S WCI   9
DAYTON         LGT SNOW  21  14  74 NW14G23   30.37R WCI   8
WILMINGTON     CLOUDY    23  15  71 W18       30.35S WCI   9
HUNTINGTON     MOCLDY    31  15  52 NW13      30.33R WCI  21
CHARLESTON     MOCLDY    32  14  47 VRB7      30.30R WCI  26
PINEVILLE*       N/A     30  13  48 MISG      30.31R
BECKLEY        CLEAR     25  11  55 NW10      30.20R WCI  15
BLUEFIELD      CLEAR     25  12  58 NW13G20   30.18R WCI  14
LOGAN CO APT*    N/A     28  14  54 W10       30.28R WCI  19
$$

VAZ002-007-008-TNZ017-027-036-066-071-090200
...SOUTHWEST VIRGINIA/EAST TENNESSEE...

CITY           SKY/WX    TMP DP  RH WIND       PRES   REMARKS
WISE*          CLEAR     28  14  54 NW13G20   30.25R WCI  18
ABINGDON*      CLEAR     33  13  42 NW10G17   30.24S WCI  25
BRISTOL        PTCLDY    34  15  46 W8        30.28R WCI  27
MORRISTOWN*    CLEAR     34  12  40 N13G21    30.31R WCI  25
SEVIERVILLE*   CLEAR     34  16  47 W5        30.34R WCI  30
KNOXVILLE      MOCLDY    36  15  42 W8        30.34R WCI  30
OAK RIDGE      PTCLDY    36  15  42 W6        30.38R WCI  31
CROSSVILLE     CLOUDY    28  14  55 NW5       30.36R WCI  23
NASHVILLE      MOCLDY    31  14  49 NW6       30.48R WCI  25
$$

...KEY TO REMARKS...
VSB - VISIBILITY IN MILES
WCI - WIND CHILL INDEX
HX  - HEAT INDEX

$$



USA.gov is the U.S. government's official web portal to all federal, state and local government web resources and services.